[[{"header":{"parameterUnit":"m.s-1","parameterCategory":1,"la1":30.2991,"la2":30.254,"lo1":-89.0895,"lo2":-89.0444,"dy":0.0017,"dx":0.0017,"nx":28,"ny":28,"refTime":"2025-04-26T21:00:00:Z","depth":0,"parameterNumber":2,"parameterNumberName":"U-component_of_WINDS"},"data":[0,0,0,0,0,0,0,0,0,0,0,0,0,0,0,0,0,0,0,0,0,0,0,0,0,0,0,0,0,0,0,0,0,0,0,0,0,0,0,0,0,0,0,0,0,0,0,0,0,0,0,0,0,0,0,0,0,0,0.8724,0.8724,0,0.8758,0.8758,0.8759,0.8726,0.8724,0.8723,0.8722,0.8759,0.8762,0.8764,0,0,0,0,0,0,0,0,0,0,0,0,0,0.863,0.8632,0.8724,0.8724,0.8724,0.8758,0.8758,0.8759,0.8726,0.8724,0.8723,0.8721,0.8759,0.8761,0.8764,0,0,0,0,0,0,0,0,0,0,0,0,0,0.8668,0.8633,0.8724,0.8712,0.8711,0.8758,0.8758,0.8759,0.8726,0.8724,0.8722,0.872,0.8758,0.8761,0.8764,0.8825,0,0,0.8775,0.8776,0,0,0,0,0,0,0,0,0.8666,0.8672,0.8713,0.8713,0.8712,0.8735,0.8739,0.8781,0.8727,0.8721,0.8722,0.8719,0.8753,0.8757,0.8768,0.8827,0.8828,0.8775,0.8777,0.8778,0.8779,0,0,0,0,0,0,0,0.8664,0.867,0.8737,0.8714,0.8713,0.8705,0.8708,0.8747,0.8748,0.8721,0.8719,0.8723,0.8752,0.8764,0.8768,0.8829,0.8775,0.8778,0.878,0.8781,0.8937,0.8939,0,0,0,0,0,0,0.8662,0.8668,0.8736,0.8738,0.8684,0.8709,0.8712,0.873,0.8747,0.8748,0.8725,0.8721,0.876,0.8764,0.8769,0.884,0.8778,0.8781,0.8783,0.8935,0.8937,0.8939,0,0,0,0,0,0,0.866,0.8669,0.8735,0.8703,0.871,0.8712,0.8733,0.8732,0.8744,0.875,0.875,0.8737,0.8758,0.8765,0.8811,0.8841,0.8783,0.8786,0.8932,0.8935,0.8938,0.8982,0,0,0,0,0,0,0.8658,0.8668,0.8691,0.8703,0.8712,0.8775,0.8734,0.8734,0.8749,0.8745,0.8761,0.8762,0.8757,0.8806,0.8814,0.8844,0.8789,0.8929,0.8934,0.8937,0.8978,0.8986,0.8994,0,0,0,0,0,0.8655,0.8703,0.8692,0.8701,0.8741,0.8777,0.8782,0.8775,0.8752,0.8775,0.8778,0.8762,0.8836,0.8811,0.882,0.8852,0.8927,0.8932,0.8937,0.8974,0.8985,0.8993,0,0,0,0,0,0,0.8696,0.8705,0.8693,0.8747,0.8761,0.8771,0.88,0.8786,0.8809,0.8804,0.8795,0.8799,0.8847,0.8854,0.8825,0.891,0.8878,0.8885,0.8903,0.8913,0.8921,0.8918,0.8791,0,0,0,0,0,0.8711,0.8739,0.8745,0.8792,0.88,0.8799,0.8814,0.8807,0.8822,0.8829,0.8836,0.8852,0.8878,0.8896,0.8921,0.8979,0.8981,0.9005,0.9013,0.9019,0.9025,0.9054,0.9064,0.8955,0.8955,0.8955,0,0,0.8743,0.8751,0.877,0.8801,0.8811,0.884,0.8804,0.8838,0.8859,0.8834,0.8877,0.8883,0.89,0.8951,0.8974,0.8958,0.9055,0.9025,0.903,0.9033,0.906,0.907,0.9079,0.8958,0.8958,0.8957,0,0,0.8816,0.8826,0.8865,0.8875,0.8891,0.8889,0.8898,0.891,0.8913,0.8955,0.8937,0.8962,0.9009,0.9021,0.9033,0.9108,0.9093,0.9117,0.9158,0.9186,0.9195,0.9202,0.9228,0.9237,0.9123,0.9123,0.9123,0,0.8854,0.8897,0.8887,0.892,0.8934,0.8911,0.895,0.8961,0.8985,0.8995,0.8976,0.9033,0.9043,0.9096,0.9114,0.9125,0.9135,0.9115,0.9194,0.9202,0.9209,0.9233,0.9243,0.9126,0.9125,0.9125,0.9125,0,0.8942,0.8972,0.9002,0.9023,0.904,0.9077,0.9072,0.909,0.9081,0.9082,0.9125,0.9135,0.9161,0.9173,0.9166,0.9225,0.9214,0.9196,0.9163,0.9222,0.9245,0.9254,0.913,0.9129,0.9128,0.9127,0,0,0.9043,0.9057,0.9068,0.9076,0.9091,0.9114,0.9149,0.9172,0.9188,0.9205,0.9233,0.9272,0.9254,0.9268,0.9261,0.9286,0.9343,0.9264,0.9264,0.9277,0.9407,0.9421,0.9432,0.9333,0.9335,0.9336,0.9405,0,0.9116,0.9175,0.9166,0.9223,0.925,0.9228,0.9258,0.927,0.9271,0.9294,0.9295,0.9322,0.9297,0.9305,0.9328,0.9331,0.9369,0.9326,0.9359,0.936,0.9355,0.9444,0.9459,0.9523,0.9414,0.9416,0.9417,0,0.9209,0.9226,0.9286,0.9294,0.9305,0.9332,0.9352,0.9375,0.9387,0.9386,0.94,0.9389,0.9423,0.939,0.9437,0.9408,0.9421,0.9424,0.9426,0.9429,0.9392,0.9448,0.9544,0.9554,0.9431,0.943,0.9429,0,0.9275,0.9314,0.9354,0.9362,0.9373,0.9392,0.9398,0.9409,0.9423,0.9441,0.945,0.9472,0.9484,0.9501,0.9496,0.9472,0.9543,0.951,0.9543,0.9543,0.9559,0.9558,0.9658,0.9568,0.9568,0.9568,0.9568,0,0.9356,0.9393,0.9383,0.9408,0.9449,0.9438,0.9478,0.9481,0.949,0.9515,0.9498,0.9521,0.9512,0.9535,0.9531,0.957,0.9576,0.9575,0.9574,0.9577,0.9577,0.9585,0.958,0.9571,0.957,0.9569,0.9569,0,0.9437,0.9432,0.9474,0.948,0.9483,0.9512,0.9517,0.954,0.9539,0.957,0.9577,0.9575,0.9601,0.9597,0.9627,0.9623,0.9671,0.9665,0.9667,0.9665,0.9697,0.9694,0.9806,0.9819,0.9722,0.9723,0.9723,0,0.9489,0.9517,0.9525,0.954,0.9546,0.957,0.9584,0.9574,0.9589,0.9604,0.9626,0.9649,0.9668,0.9711,0.9712,0.9734,0.9727,0.9765,0.9731,0.9732,0.9727,0.9725,0.9727,0.9772,0.9773,0.9774,0.9775,0,0.9582,0.9577,0.9597,0.9616,0.9633,0.9648,0.9661,0.9674,0.9665,0.9683,0.9708,0.9723,0.9751,0.9775,0.9795,0.9801,0.9786,0.9785,0.9794,0.9797,0.9796,0.9796,0.9684,0.9783,0.9782,0.9781,0.9781,0.9781,0.9649,0.9672,0.968,0.9703,0.9711,0.9723,0.9745,0.9745,0.9766,0.9787,0.978,0.9809,0.982,0.9845,0.9853,0.9875,0.9861,0.9874,0.9877,0.988,0.9883,0.9793,0.9879,0.9878,0.9878,0.9878,0.9878,0,0.974,0.9744,0.9764,0.9782,0.98,0.9783,0.9796,0.9812,0.9837,0.9847,0.9865,0.9894,0.9916,0.9919,0.994,0.9957,0.9951,0.9963,0.9962,0.9963,0.9895,0.9885,0.9968,0.9968,0.9968,0.9968,0.9968,0.9968,0.9789,0.9826,0.9822,0.9862,0.9866,0.9893,0.9902,0.9913,0.9921,0.9953,0.9971,0.9972,0.9979,1.0,1.002,1.002,1.0028,1.0043,1.004,0.9977,0.9968,0.9959,0.995,1.0045,1.0045,1.0106,1.0107,1.0107]},{"header":{"parameterUnit":"m.s-1","parameterCategory":1,"la1":30.2991,"la2":30.254,"lo1":-89.0895,"lo2":-89.0444,"dy":0.0017,"dx":0.0017,"nx":28,"ny":28,"refTime":"2025-04-26T21:00:00:Z","depth":0,"parameterNumber":3,"parameterNumberName":"V-component_of_WINDS"},"data":[0,0,0,0,0,0,0,0,0,0,0,0,0,0,0,0,0,0,0,0,0,0,0,0,0,0,0,0,0,0,0,0,0,0,0,0,0,0,0,0,0,0,0,0,0,0,0,0,0,0,0,0,0,0,0,0,0,0,2.6908,2.6908,0,2.6913,2.6913,2.6913,2.6859,2.6858,2.6856,2.6855,2.6858,2.686,2.6861,0,0,0,0,0,0,0,0,0,0,0,0,0,2.685,2.6851,2.6908,2.6908,2.6908,2.6912,2.6913,2.6913,2.686,2.6858,2.6856,2.6854,2.6858,2.686,2.6861,0,0,0,0,0,0,0,0,0,0,0,0,0,2.6867,2.6852,2.6908,2.6882,2.688,2.6912,2.6913,2.6913,2.686,2.6858,2.6856,2.6854,2.6857,2.6859,2.6862,2.6919,0,0,2.6868,2.6869,0,0,0,0,0,0,0,0,2.6866,2.6869,2.6886,2.6884,2.6881,2.6883,2.6893,2.6915,2.6861,2.6867,2.6855,2.6852,2.6868,2.6869,2.6875,2.6919,2.6919,2.6868,2.687,2.6871,2.6871,0,0,0,0,0,0,0,2.6865,2.6869,2.6909,2.6886,2.6883,2.6869,2.6869,2.6897,2.688,2.6867,2.6863,2.6864,2.6867,2.6873,2.6875,2.6919,2.6868,2.687,2.6872,2.6872,2.7009,2.7011,0,0,0,0,0,0,2.6868,2.6868,2.6909,2.691,2.6868,2.6872,2.6872,2.6885,2.688,2.6877,2.6866,2.6862,2.687,2.6872,2.6875,2.6941,2.6871,2.6873,2.6874,2.7007,2.701,2.7012,0,0,0,0,0,0,2.6867,2.6872,2.6909,2.6888,2.6891,2.6876,2.689,2.6886,2.6892,2.6879,2.6876,2.6876,2.6869,2.6872,2.6908,2.694,2.6874,2.6876,2.7004,2.7008,2.7011,2.7074,0,0,0,0,0,0,2.6865,2.6872,2.6894,2.6889,2.6893,2.6943,2.6892,2.6888,2.6896,2.6891,2.6887,2.6885,2.6867,2.6905,2.691,2.6942,2.6877,2.7001,2.7006,2.701,2.7069,2.7079,2.7088,0,0,0,0,0,2.6863,2.6911,2.6895,2.6901,2.692,2.6945,2.6948,2.6927,2.6899,2.6921,2.6912,2.6885,2.6936,2.6909,2.6915,2.6947,2.6999,2.7004,2.701,2.7064,2.7077,2.7087,0,0,0,0,0,0,2.692,2.691,2.6892,2.694,2.6944,2.6936,2.6963,2.6941,2.6952,2.6946,2.692,2.6919,2.696,2.6957,2.6928,2.7002,2.6962,2.6969,2.7002,2.7014,2.7023,2.7023,2.6879,0,0,0,0,0,2.6938,2.696,2.695,2.6993,2.6996,2.6979,2.6989,2.6973,2.6976,2.6977,2.6971,2.6974,2.6991,2.7002,2.7017,2.7068,2.7066,2.7093,2.7103,2.711,2.7116,2.7142,2.7154,2.7029,2.7029,2.7029,0,0,2.6975,2.6973,2.6988,2.7004,2.7005,2.7028,2.6981,2.7007,2.7023,2.6981,2.7015,2.7011,2.7012,2.7056,2.7075,2.7055,2.715,2.7117,2.7123,2.7125,2.7149,2.7161,2.7171,2.7033,2.7032,2.7032,0,0,2.7055,2.7056,2.7091,2.7093,2.7096,2.7085,2.7093,2.7089,2.7085,2.7119,2.7087,2.7106,2.7135,2.7137,2.7143,2.7223,2.7198,2.7228,2.7278,2.7303,2.7313,2.7322,2.735,2.736,2.7234,2.7234,2.7235,0,2.7101,2.7134,2.7112,2.714,2.7148,2.7111,2.7146,2.7149,2.7156,2.7162,2.714,2.7175,2.7174,2.7218,2.7237,2.7243,2.7251,2.7228,2.7314,2.7322,2.733,2.7356,2.7367,2.7238,2.7238,2.7237,2.7237,0,2.719,2.7214,2.7242,2.725,2.7261,2.7293,2.7274,2.7288,2.7271,2.7262,2.7296,2.7294,2.7307,2.7316,2.7299,2.7357,2.7345,2.7319,2.7278,2.7346,2.737,2.738,2.7243,2.7242,2.7241,2.724,0,0,2.7305,2.7301,2.7312,2.7315,2.7315,2.7332,2.7361,2.7375,2.7387,2.7393,2.7416,2.7442,2.7418,2.7423,2.7407,2.743,2.7493,2.74,2.74,2.7417,2.7556,2.7575,2.7587,2.7476,2.7478,2.748,2.7555,0,2.7382,2.7433,2.7414,2.7466,2.7486,2.7452,2.7478,2.748,2.7473,2.7489,2.748,2.7498,2.7465,2.7468,2.7489,2.7481,2.752,2.7475,2.7497,2.7498,2.7498,2.76,2.762,2.7692,2.7565,2.7566,2.7567,0,2.7479,2.7489,2.7543,2.7539,2.7547,2.7571,2.7581,2.7597,2.7599,2.7592,2.7599,2.7577,2.7605,2.7565,2.7603,2.7573,2.7581,2.7578,2.758,2.7581,2.7537,2.7603,2.7714,2.7725,2.7582,2.7581,2.758,0,2.7556,2.7584,2.7619,2.7623,2.762,2.7637,2.7636,2.7636,2.7645,2.7654,2.7659,2.7672,2.7678,2.7688,2.7669,2.7642,2.771,2.7669,2.7704,2.7704,2.7719,2.7718,2.7833,2.7725,2.7725,2.7725,2.7725,0,2.7643,2.7678,2.7654,2.7676,2.7713,2.7691,2.7728,2.7723,2.7723,2.7743,2.7714,2.7733,2.7709,2.7725,2.7711,2.7744,2.7748,2.7742,2.7738,2.7744,2.7745,2.7749,2.7743,2.7728,2.7727,2.7727,2.7726,0,2.7736,2.7722,2.7758,2.7752,2.7751,2.7779,2.7773,2.7793,2.7783,2.7809,2.7814,2.7798,2.7817,2.78,2.7817,2.7807,2.7851,2.784,2.7851,2.7848,2.7884,2.788,2.8004,2.8019,2.7903,2.7904,2.7905,0,2.7792,2.7818,2.7815,2.7826,2.7827,2.7846,2.7856,2.7834,2.7845,2.7849,2.7868,2.7884,2.7895,2.7926,2.7916,2.7929,2.7917,2.796,2.7919,2.7925,2.7917,2.7916,2.7918,2.7968,2.7969,2.7971,2.7971,0,2.7894,2.7885,2.79,2.7913,2.7925,2.7933,2.794,2.7951,2.7929,2.7942,2.7961,2.797,2.7987,2.8003,2.8013,2.8011,2.7988,2.7985,2.7993,2.8,2.8005,2.8002,2.7873,2.7982,2.7981,2.798,2.7979,2.7979,2.7969,2.799,2.7991,2.8009,2.8011,2.8018,2.8036,2.8029,2.8044,2.8057,2.8043,2.8066,2.8067,2.8077,2.8079,2.8096,2.8078,2.809,2.8093,2.8097,2.8102,2.8003,2.8097,2.8097,2.8097,2.8096,2.8096,0,2.8068,2.8067,2.8084,2.8094,2.8107,2.8085,2.809,2.8103,2.8123,2.8126,2.8138,2.8159,2.8175,2.8166,2.8179,2.8194,2.8184,2.8198,2.8197,2.8197,2.8117,2.8108,2.8207,2.8207,2.8207,2.8207,2.8206,2.8206,2.8121,2.8156,2.8147,2.8182,2.8181,2.8203,2.8208,2.8214,2.8216,2.8241,2.8254,2.8249,2.8247,2.826,2.8272,2.8269,2.8275,2.8294,2.8287,2.8213,2.8202,2.8192,2.8183,2.8295,2.8296,2.8364,2.8365,2.8366]}]]